ONEWEB-0259 (48977 NORAD) Tracking and Keplerian Element Data

This shows tracking and keplerian element data for the satellite.

Feedback or suggestion? Click here.




ElementValue
Catalog48977
NameONEWEB-0259
Epoch Orbit368
Epoch Day210.91668981
Epoch Year2021
RAAN227.5004
Inclination87.4606
Eccentricity0.0012851
Argument of Perigee157.38
Mean Anonmoly114.8543
Mean Motion15.01548204
Decay Rate-0.01362725
L11 48977U 21060L 21210.91668981 -.01362725 00000-0 -11442+0 0 9997
L22 48977 87.4606 227.5004 0012851 157.3800 114.8543 15.01548204 3682

Live tracking and technical data element details for ONEWEB-0259 (NORAD 48977). ONEWEB-0259 can be tracked NOW for your location showing map with azimuth and elevation plus other details from your city location.

Track the satellite on the map from your city or location and see movement details for azimuth, elevation, latitude, longitude, range, height, and movement on the map or in text.







IsCatalogInMostPopularTable: catalog: 48977, numindb: 3
Update: records affected: 1



GetName: 48977 ONEWEB-0259

Hit Count: updated at: Sat, 31 Jul 2021 14:56:34 GMT